Starlink 30228

operational
NORAD ID: 57502 Int'l Des: 2023-113 Owner: SPXS Country: US Constellation: starlink
LEOCIRCULAR

About Starlink 30228

Description loading...

Live Position

Loading 3D Globe...

Upcoming Passes

Altitude History

Altitude vs Time

uPlot chart will show altitude changes over time

Two-Line Element Set

1 57502U 23113H 25352.33335648 .00678982 00000-0 49203-2 0 9991
2 57502 42.9801 36.5640 0027494 67.0338 33.0723 15.70220100 5924
Epoch: Dec 18, 2025 • Age: 8 hours

Current Status

Altitude 377.8 km
Velocity 7.68 km/s
Sub-Earth Point -23.37°S, 87.35°W
Launch Date Aug 7, 2023
Age 2.3 years
Type internet

Technical Details

Classification Payload
Mass 730.00 kg
Dry Mass 700.00 kg
Total Mass 730.00 kg
Length 0.30 m
Diameter 4.10 m
Span 29.00 m
Shape Box + pan
Manufacturer SPXS
Bus Type Starlink V2M
Phase Status In Orbit
Owner/State SPXS/US

Large Constellations

Loading constellations...